JON32 ESSA-ESKM

Flight info

Callsign JON32
Flight time N/A
Altitude 16000
Route KOGAV
Aircraft BE20/L-SDFGRY/S

Departure

Time 2026-04-29 17:10
Airport Stockholm-Arlanda Airport (ESSA)

Arrival

Time N/A
Airport Mora Airport (ESKM)
Time Latitude Longitude Altitude Speed Heading
2026-04-29 16:41 59.63995 17.91921 109 ft 0 kts 332°
2026-04-29 17:07 59.63996 17.91920 109 ft 0 kts 340°
2026-04-29 17:07 59.63997 17.91921 109 ft 1 kts 359°
2026-04-29 17:07 59.64030 17.91989 110 ft 9 kts
2026-04-29 17:07 59.64124 17.92011 110 ft 17 kts 360°
2026-04-29 17:08 59.64252 17.92040 110 ft 16 kts 11°
2026-04-29 17:08 59.64341 17.91960 108 ft 15 kts 299°
2026-04-29 17:08 59.64411 17.91832 106 ft 18 kts 282°
2026-04-29 17:08 59.64439 17.91589 104 ft 6 kts 315°
2026-04-29 17:09 59.64455 17.91583 104 ft 0 kts 18°
2026-04-29 17:09 59.64457 17.91585 104 ft 1 kts 17°
2026-04-29 17:09 59.64599 17.91636 107 ft 50 kts
2026-04-29 17:09 59.65152 17.91837 127 ft 105 kts
2026-04-29 17:10 59.65928 17.92080 504 ft 115 kts 351°
2026-04-29 17:10 59.66729 17.91859 952 ft 118 kts 351°
2026-04-29 17:10 59.67518 17.91811 1312 ft 111 kts 354°
2026-04-29 17:10 59.68258 17.91391 1827 ft 111 kts 336°
2026-04-29 17:11 59.68954 17.90751 2502 ft 110 kts 323°
2026-04-29 17:11 59.69350 17.89346 3022 ft 126 kts 298°
2026-04-29 17:11 59.69453 17.87594 3589 ft 128 kts 277°
2026-04-29 17:11 59.69398 17.85902 4077 ft 116 kts 274°
2026-04-29 17:12 59.69331 17.84913 4441 ft 105 kts 274°
2026-04-29 17:12 59.69203 17.83415 4666 ft 121 kts 262°
2026-04-29 17:12 59.69013 17.81720 4687 ft 127 kts 296°
2026-04-29 17:12 59.69385 17.80848 4697 ft 127 kts 337°
2026-04-29 17:13 59.70318 17.79617 5047 ft 114 kts 316°
2026-04-29 17:13 59.70759 17.78411 5476 ft 109 kts 304°
2026-04-29 17:13 59.71228 17.77252 5753 ft 103 kts 319°
2026-04-29 17:13 59.71684 17.76176 6087 ft 104 kts 313°
2026-04-29 17:14 59.72131 17.74986 6302 ft 109 kts 313°
2026-04-29 17:14 59.72620 17.73783 6435 ft 121 kts 315°
2026-04-29 17:14 59.73196 17.72454 6594 ft 127 kts 315°
2026-04-29 17:14 59.73770 17.71126 6859 ft 127 kts 315°
2026-04-29 17:15 59.74337 17.69795 7108 ft 126 kts 315°
2026-04-29 17:15 59.74911 17.68474 7355 ft 126 kts 316°
2026-04-29 17:15 59.75489 17.67167 7607 ft 126 kts 317°
2026-04-29 17:15 59.76057 17.65880 7840 ft 125 kts 318°
2026-04-29 17:16 59.76676 17.64507 8008 ft 142 kts 317°
2026-04-29 17:16 59.77329 17.63039 8585 ft 140 kts 317°
2026-04-29 17:16 59.77967 17.61569 9161 ft 142 kts 317°
2026-04-29 17:16 59.78603 17.60060 9750 ft 143 kts 317°
2026-04-29 17:17 59.79235 17.58518 10325 ft 145 kts 317°
2026-04-29 17:17 59.79855 17.56957 10933 ft 138 kts 317°
2026-04-29 17:17 59.80399 17.55525 11686 ft 125 kts 317°
2026-04-29 17:17 59.80875 17.54197 12458 ft 110 kts 317°
2026-04-29 17:18 59.81252 17.53045 13210 ft 91 kts 316°
2026-04-29 17:18 59.81530 17.52065 13804 ft 76 kts 316°
2026-04-29 17:18 59.81731 17.51142 13405 ft 46 kts 323°